Powrót do katalogu

STARLINK-3980

AktywnyŁącznośćVLEO
NORAD 52611·PAYLOAD·🇺🇸 United States

Wystrzelony May 14, 2022 z Cape Canaveral Space Force Station

Loading…

Następne Przeloty (najbliższe 24 godziny)

TLE

ŚwieżeSource: CelesTrak SupGP

Epoka: Sep 14, 2026, 21:33 UTC

1 52611C 22052P   26257.89840278 -.00052971  00000+0 -15159-2 0  2579
2 52611  53.1567 142.7748 0001280  92.4936 167.6654 15.35418388    13

Śledź STARLINK-3980 w czasie rzeczywistym z AllMySat

Download on the App Store